Regional Weather Roundup
Issued by NWS Northern Indiana

Home | Current Version | Previous Version | Graphics & Text | Print | Product List | Glossary Off
Versions: 1 2 3 4 5 6 7 8 9 10 11 12 13 14 15 16 17 18 19 20 21 22 23 24 25 26 27 28 29 30 31 32 33 34 35 36 37 38 39 40 41 42 43 44 45 46 47 48 49 50

000
ASUS43 KIWX 251910
RWRIWX

KIWX WEATHER ROUNDUP
NATIONAL WEATHER SERVICE NORTHERN INDIANA
300 PM EDT SAT APR 25 2015

NOTE: "FAIR" INDICATES FEW OR NO CLOUDS BELOW 12,000 FEET WITH NO
SIGNIFICANT WEATHER AND/OR OBSTRUCTIONS TO VISIBILITY.

* THESE STATIONS ARE NOT UNDER NWS QUALITY CONTROL. THEY ALSO MAY NOT
  REPORT WEATHER SUCH AS PRECIPITATION OR FOG.

INZ001>027-252000-
NORTHERN INDIANA

CITY           SKY/WX    TMP DP  RH WIND       PRES   REMARKS
GARY*          LGT RAIN  45  39  81 E9        29.79S FOG
VALPARAISO     LGT RAIN  45  42  89 E14       29.77F
MICHIGAN CITY* RAIN      45  37  76 CALM      29.81R
LAPORTE*       RAIN      46  44  90 S3        29.81R
KNOX*          CLOUDY    43  36  75 CALM      29.80R
SOUTH BEND     LGT RAIN  46  41  82 E9        29.79S
ELKHART*       LGT RAIN  46  41  81 E14       29.77F
GOSHEN         LGT RAIN  47  41  80 E17       29.75F
MONTICELLO*    RAIN      43  42  98 NE14      29.72F
LOGANSPORT*    RAIN      43  41  93 E7        29.75R
ROCHESTER*     LGT RAIN  46  45  93 E7G18     29.78R
WARSAW*        RAIN      45  43  93 E12       29.75R
ANGOLA*        MOSUNNY   45  39  81 E14       29.78S
FORT WAYNE     RAIN      45  42  89 E16       29.73F FOG
HUNTINGTON*    LGT RAIN  44  42  91 E10G16    29.72F
PERU/GRISSOM   LGT RAIN  45  41  87 E15       29.72R
MARION*        RAIN      43  39  85 E14       29.73R

$$
INZ028>050-252000-
CENTRAL INDIANA

CITY           SKY/WX    TMP DP  RH WIND       PRES   REMARKS
LAFAYETTE      RAIN      45  43  93 NE17      29.67S FOG
KOKOMO*        CLOUDY    45  39  81 E18       29.71F
MUNCIE*        RAIN      42  39  89 E16       29.72S FOG
INDIANAPOLIS   LGT RAIN  46  43  89 E17G25    29.62F FOG

$$
MIZ043>046-050>051-056>058-064>065-071>073-077>080-252000-
SOUTHWEST LOWER MICHIGAN

CITY           SKY/WX    TMP DP  RH WIND       PRES   REMARKS
BATTLE CREEK   CLOUDY    48  37  65 E10       29.81R
BENTON HARBOR  CLOUDY    48  38  68 E12       29.79S
COLDWATER*     CLOUDY    46  37  72 E9        29.79S
HILLSDALE*     CLOUDY    46  32  58 SE13      29.80S
HOLLAND        CLOUDY    53  38  56 E13       29.82R
GRAND RAPIDS   PTSUNNY   53  32  44 E13       29.81R
KALAMAZOO      CLOUDY    47  38  71 E9        29.81S
STURGIS*       LGT RAIN  46  41  81 E13       29.78F
THREE RIVERS*  CLOUDY    47  38  71 E9        29.79F

$$
OHZ001>008-015>018-024>025-252000-
NORTHWEST OHIO

CITY           SKY/WX    TMP DP  RH WIND       PRES   REMARKS
WAUSEON*       CLOUDY    46  36  66 E14       29.81R
DEFIANCE       CLOUDY    48  40  73 E7        29.79S
FINDLAY        CLOUDY    50  38  63 E12       29.77F
TOLEDO EXPRESS CLOUDY    47  34  60 E16G22    29.80F
TOLEDO METCALF CLOUDY    47  29  49 E16       29.82F
LIMA           RAIN      45  39  79 E10       29.75F

$$
AND FOR LAKE MICHIGAN COASTAL AND OPEN LAKE BUOY OBSERVATIONS

STATION/POSITION TEMP    WIND        PRES    VSBY  WAVE
                 AIR SEA DIR/SP/G                  HT/PER
                 (F)     (DEG/KT/KT) (MB)    (MI)  (FT/S)
CALUMET HARBOR    43      40/  9/ 12   N/A
MICHIGAN CITY     44      80/  4/  5   N/A
BURNS HARBOR      45      90/  6/  8 1009.8S
SAINT JOSEPH      49      20/  2/  7 1010.2R
MICHIGAN CITY     45 45  130/  6/  8   N/A           2/ 4

$$
&&



USA.gov is the U.S. government's official web portal to all federal, state and local government web resources and services.